timestamp,surface_pressure_avg,surface_temp_avg,battery_voltage,lat,long
2023-12-13 00:09:00+00:00,327.723,5.6,11.61,47.84626,-54.09684
2023-12-13 00:19:00+00:00,335.2747,5.6,11.61,47.84626,-54.09684
2023-12-13 00:29:00+00:00,335.5963,5.6,11.61,47.84626,-54.09684
2023-12-13 00:39:00+00:00,324.0963,5.6,11.61,47.84626,-54.09684
2023-12-13 00:49:00+00:00,326.9646,5.6,11.61,47.84626,-54.09684
2023-12-13 00:59:00+00:00,332.6646,5.6,11.61,47.84626,-54.09684
2023-12-13 01:09:00+00:00,322.5197,5.6,11.61,47.84626,-54.09684
2023-12-13 01:19:00+00:00,308.528,5.6,11.61,47.84626,-54.09684
2023-12-13 01:29:00+00:00,307.8597,5.6,11.61,47.84626,-54.09684
2023-12-13 01:39:00+00:00,308.8763,5.6,11.61,47.84626,-54.09684
2023-12-13 01:49:00+00:00,298.7463,5.6,11.61,47.84626,-54.09684
2023-12-13 01:59:00+00:00,287.798,5.6,11.61,47.84626,-54.09684
2023-12-13 02:09:00+00:00,285.108,5.6,11.61,47.84626,-54.09684
2023-12-13 02:19:00+00:00,279.848,5.6,11.61,47.84626,-54.09684
2023-12-13 02:29:00+00:00,270.0681,5.6,11.61,47.84626,-54.09684
2023-12-13 02:39:00+00:00,265.4164,5.6,11.61,47.84626,-54.09684
2023-12-13 02:49:00+00:00,261.3364,5.6,11.61,47.84626,-54.09684
2023-12-13 02:59:00+00:00,251.0048,5.6,11.61,47.84626,-54.09684
2023-12-13 03:09:00+00:00,242.4914,5.6,11.61,47.84626,-54.09684
2023-12-13 03:19:00+00:00,239.6731,5.6,11.61,47.84626,-54.09684
2023-12-13 03:29:00+00:00,231.7297,5.6,11.61,47.84626,-54.09684
2023-12-13 03:39:00+00:00,219.8931,5.6,11.61,47.84626,-54.09684
2023-12-13 03:49:00+00:00,215.4247,5.6,11.61,47.84626,-54.09684
2023-12-13 03:59:00+00:00,212.6648,5.6,11.61,47.84626,-54.09684
2023-12-13 04:09:00+00:00,205.7548,5.6,11.61,47.84626,-54.09684
2023-12-13 04:19:00+00:00,197.9632,5.64,11.61,47.84626,-54.09684
2023-12-13 04:29:00+00:00,195.8415,5.67,11.61,47.84626,-54.09684
2023-12-13 04:39:00+00:00,194.9582,5.66,11.61,47.84626,-54.09684
2023-12-13 04:49:00+00:00,194.2648,5.69,11.61,47.84626,-54.09684
2023-12-13 04:59:00+00:00,196.5815,5.69,11.61,47.84626,-54.09684
2023-12-13 05:09:00+00:00,199.4398,5.7,11.61,47.84626,-54.09684
2023-12-13 05:19:00+00:00,199.3848,5.69,11.61,47.84626,-54.09684
2023-12-13 05:29:00+00:00,202.3199,5.69,11.61,47.84626,-54.09684
2023-12-13 05:39:00+00:00,207.6815,5.68,11.61,47.84626,-54.09684
2023-12-13 05:49:00+00:00,208.6498,5.5,11.61,47.84626,-54.09684
2023-12-13 05:59:00+00:00,212.1415,5.47,11.61,47.84626,-54.09684
2023-12-13 06:09:00+00:00,218.0914,5.4,11.61,47.84626,-54.09684
2023-12-13 06:19:00+00:00,221.2681,5.43,11.61,47.84626,-54.09684
2023-12-13 06:29:00+00:00,224.7448,5.4,11.61,47.84626,-54.09684
2023-12-13 06:39:00+00:00,234.6581,5.47,11.61,47.84626,-54.09684
2023-12-13 06:49:00+00:00,243.1931,5.5,11.61,47.84626,-54.09684
2023-12-13 06:59:00+00:00,246.0497,5.52,11.61,47.84626,-54.09684
2023-12-13 07:09:00+00:00,253.3647,5.58,11.61,47.84626,-54.09684
2023-12-13 07:19:00+00:00,259.1064,5.6,11.61,47.84626,-54.09684
2023-12-13 07:29:00+00:00,257.4697,5.6,11.61,47.84626,-54.09684
2023-12-13 07:39:00+00:00,256.9181,5.6,11.61,47.84626,-54.09684
2023-12-13 07:49:00+00:00,267.3997,5.6,11.61,47.84626,-54.09684
2023-12-13 07:59:00+00:00,274.1215,5.64,11.61,47.84626,-54.09684
2023-12-13 08:09:00+00:00,274.1948,5.62,11.61,47.84626,-54.09684
2023-12-13 08:19:00+00:00,278.9847,5.63,11.53,47.84626,-54.09684
2023-12-13 08:29:00+00:00,291.073,5.63,11.53,47.84626,-54.09684
2023-12-13 08:39:00+00:00,297.1164,5.62,11.53,47.84626,-54.09684
2023-12-13 08:49:00+00:00,298.0297,5.6,11.53,47.84626,-54.09684
2023-12-13 08:59:00+00:00,306.7047,5.6,11.53,47.84626,-54.09684
2023-12-13 09:09:00+00:00,316.5847,5.68,11.53,47.84626,-54.09684
2023-12-13 09:19:00+00:00,319.3047,5.69,11.53,47.84626,-54.09684
2023-12-13 09:29:00+00:00,325.088,5.7,11.53,47.84626,-54.09684
2023-12-13 09:39:00+00:00,339.2863,5.7,11.53,47.84626,-54.09684
2023-12-13 09:49:00+00:00,348.2197,5.7,11.53,47.84626,-54.09684
2023-12-13 09:59:00+00:00,350.70300000000015,5.7,11.53,47.84626,-54.09684
2023-12-13 10:09:00+00:00,356.0513,5.7,11.53,47.84626,-54.09684
2023-12-13 10:19:00+00:00,368.6262,5.7,11.53,47.84626,-54.09684
2023-12-13 10:29:00+00:00,379.4178,5.7,11.53,47.84626,-54.09684
2023-12-13 10:39:00+00:00,383.4728,5.7,11.53,47.84626,-54.09684
2023-12-13 10:49:00+00:00,387.588,5.7,11.53,47.84626,-54.09684
2023-12-13 10:59:00+00:00,394.7562,5.7,11.53,47.84626,-54.09684
2023-12-13 11:09:00+00:00,397.4263,5.7,11.53,47.84626,-54.09684
2023-12-13 11:19:00+00:00,395.9495,5.7,11.53,47.84626,-54.09684
2023-12-13 11:29:00+00:00,399.2695,5.7,11.53,47.84626,-54.09684
2023-12-13 11:39:00+00:00,401.8245,5.7,11.53,47.84626,-54.09684
2023-12-13 11:49:00+00:00,396.7929,5.6,11.53,47.84626,-54.09684
2023-12-13 11:59:00+00:00,396.3346,5.4,11.53,47.84626,-54.09684
2023-12-13 12:09:00+00:00,398.3297,5.38,11.53,47.84626,-54.09684
2023-12-13 12:19:00+00:00,394.7828,5.39,11.53,47.84626,-54.09684
2023-12-13 12:29:00+00:00,391.6763,5.4,11.53,47.84626,-54.09684
2023-12-13 12:39:00+00:00,388.6279,5.4,11.53,47.84626,-54.09684
2023-12-13 12:49:00+00:00,382.0162,5.4,11.53,47.84626,-54.09684
2023-12-13 12:59:00+00:00,375.9263,5.48,11.53,47.84626,-54.09684
2023-12-13 13:09:00+00:00,369.6746,5.6,11.53,47.84626,-54.09684
2023-12-13 13:19:00+00:00,363.8663,5.6,11.61,47.84626,-54.09684
2023-12-13 13:29:00+00:00,357.6379,5.6,11.61,47.84626,-54.09684
2023-12-13 13:39:00+00:00,353.8312,5.64,11.61,47.84626,-54.09684
2023-12-13 13:49:00+00:00,347.9413,5.69,11.61,47.84626,-54.09684
2023-12-13 13:59:00+00:00,336.5747,5.7,11.61,47.84626,-54.09684
2023-12-13 14:09:00+00:00,330.9663,5.7,11.61,47.84626,-54.09684
2023-12-13 14:19:00+00:00,327.3597,5.7,11.93,47.84626,-54.09684
2023-12-13 14:29:00+00:00,317.1896,5.7,11.93,47.84626,-54.09684
2023-12-13 14:39:00+00:00,305.9197,5.7,11.93,47.84626,-54.09684
2023-12-13 14:49:00+00:00,300.473,5.7,11.93,47.84626,-54.09684
2023-12-13 14:59:00+00:00,294.7197,5.7,11.93,47.84626,-54.09684
2023-12-13 15:09:00+00:00,284.8281,5.7,11.93,47.84626,-54.09684
2023-12-13 15:19:00+00:00,273.6064,5.73,11.86,47.84626,-54.09684
2023-12-13 15:29:00+00:00,266.8997,5.72,11.86,47.84626,-54.09684
2023-12-13 15:39:00+00:00,260.613,5.72,11.86,47.84626,-54.09684
2023-12-13 15:49:00+00:00,251.9781,5.74,11.86,47.84626,-54.09684
2023-12-13 15:59:00+00:00,241.4331,5.76,11.86,47.84626,-54.09684
2023-12-13 16:09:00+00:00,233.8014,5.76,11.86,47.84626,-54.09684
2023-12-13 16:19:00+00:00,228.4114,5.76,11.77,47.84626,-54.09684
2023-12-13 16:29:00+00:00,218.4097,5.76,11.77,47.84626,-54.09684
2023-12-13 16:39:00+00:00,211.3748,5.76,11.77,47.84626,-54.09684
2023-12-13 16:49:00+00:00,207.5481,5.74,11.77,47.84626,-54.09684
2023-12-13 16:59:00+00:00,200.7581,5.79,11.77,47.84626,-54.09684
2023-12-13 17:09:00+00:00,195.3115,5.8,11.77,47.84626,-54.09684
2023-12-13 17:19:00+00:00,193.8015,5.8,11.86,47.84626,-54.09684
2023-12-13 17:29:00+00:00,187.2698,5.82,11.86,47.84626,-54.09684
2023-12-13 17:39:00+00:00,180.8881,5.89,11.86,47.84626,-54.09684
2023-12-13 17:49:00+00:00,181.1832,5.82,11.86,47.84626,-54.09684
2023-12-13 17:59:00+00:00,181.7914,5.88,11.86,47.84626,-54.09684
2023-12-13 18:09:00+00:00,178.3482,5.9,11.86,47.84626,-54.09684
2023-12-13 18:19:01+00:00,181.5915,5.9,11.77,47.84626,-54.09684
2023-12-13 18:29:01+00:00,190.4481,5.87,11.77,47.84626,-54.09684
2023-12-13 18:39:01+00:00,189.2165,5.9,11.77,47.84626,-54.09684
2023-12-13 18:49:01+00:00,187.9031,5.9,11.77,47.84626,-54.09684
2023-12-13 18:59:01+00:00,193.1698,5.9,11.77,47.84626,-54.09684
2023-12-13 19:09:01+00:00,194.9315,5.9,11.77,47.84626,-54.09684
2023-12-13 19:19:01+00:00,194.3248,5.9,11.7,47.84626,-54.09684
2023-12-13 19:29:01+00:00,196.5664,5.9,11.7,47.84626,-54.09684
2023-12-13 19:39:01+00:00,201.5431,5.8,11.7,47.84626,-54.09684
2023-12-13 19:49:01+00:00,203.7865,5.7,11.7,47.84626,-54.09684
2023-12-13 19:59:01+00:00,205.6031,5.7,11.7,47.84626,-54.09684
2023-12-13 20:09:01+00:00,209.1631,5.69,11.7,47.84626,-54.09684
2023-12-13 20:19:00+00:00,214.8665,5.69,11.7,47.84626,-54.09684
2023-12-13 20:29:00+00:00,218.4831,5.69,11.7,47.84626,-54.09684
2023-12-13 20:39:00+00:00,222.2914,5.7,11.7,47.84626,-54.09684
2023-12-13 20:49:00+00:00,227.463,5.7,11.7,47.84626,-54.09684
2023-12-13 20:59:00+00:00,231.8748,5.7,11.7,47.84626,-54.09684
2023-12-13 21:09:00+00:00,237.9948,5.7,11.7,47.84626,-54.09684
2023-12-13 21:19:00+00:00,245.7814,5.7,11.61,47.84626,-54.09684
2023-12-13 21:29:00+00:00,255.9547,5.7,11.61,47.84626,-54.09684
2023-12-13 21:39:00+00:00,263.8447,5.7,11.61,47.84626,-54.09684
2023-12-13 21:49:00+00:00,273.4181,5.7,11.61,47.84626,-54.09684
2023-12-13 21:59:00+00:00,283.653,5.66,11.61,47.84626,-54.09684
2023-12-13 22:09:00+00:00,293.6063,5.6,11.61,47.84626,-54.09684
2023-12-13 22:19:00+00:00,299.3463,5.6,11.61,47.84626,-54.09684
2023-12-13 22:29:00+00:00,305.5963,5.6,11.61,47.84626,-54.09684
2023-12-13 22:39:00+00:00,314.6964,5.61,11.61,47.84626,-54.09684
2023-12-13 22:49:00+00:00,323.748,5.66,11.61,47.84626,-54.09684
2023-12-13 22:59:00+00:00,326.948,5.68,11.61,47.84626,-54.09684
2023-12-13 23:09:00+00:00,330.7696,5.67,11.61,47.84626,-54.09684
2023-12-13 23:19:00+00:00,335.7195,5.6,11.61,47.84626,-54.09684
2023-12-13 23:29:00+00:00,337.3213,5.6,11.61,47.84626,-54.09684
2023-12-13 23:39:00+00:00,335.7613,5.56,11.61,47.84626,-54.09684
2023-12-13 23:49:00+00:00,339.6746,5.5,11.61,47.84626,-54.09684
2023-12-13 23:59:00+00:00,341.0963,5.5,11.61,47.84626,-54.09684
